When you browse on this site, cookies collect data to enhance your experience and personalize the content and advertising you see.
Visit our Privacy Policy to learn more. By continuing to use the site, you agree to this use of cookies and data.
  • In Deutschland
  • Länderverzeichnis
  • Für 7 Tage
  • Wassertemperatur
  • Wetterkarte
  • Widgets
  • user-avatar
    Anmelden

    Stündliche Wetter Gasni

    Heute, 23 September, Montag

    Zeit Temperatur Niederschläge Wind Luftdruck Luftfeuchtigkeit
    00:00 +18°C° 0 mm 1 m/S 589 mmHg 24%
    01:00 +18°C° 0 mm 1 m/S 589 mmHg 28%
    02:00 +16°C° 0 mm 1 m/S 588 mmHg 31%
    03:00 +15°C° 0 mm 1 m/S 588 mmHg 32%
    04:00 +15°C° 0 mm 1 m/S 588 mmHg 33%
    05:00 +14°C° 0 mm 1 m/S 588 mmHg 32%
    06:00 +16°C° 0 mm 1 m/S 590 mmHg 29%
    07:00 +19°C° 0 mm 1 m/S 591 mmHg 26%
    08:00 +21°C° 0 mm 1 m/S 592 mmHg 22%
    09:00 +22°C° 0 mm 1 m/S 592 mmHg 20%
    10:00 +24°C° 0 mm 1 m/S 593 mmHg 18%
    11:00 +26°C° 0 mm 2 m/S 593 mmHg 16%
    12:00 +27°C° 0 mm 2 m/S 593 mmHg 14%
    13:00 +28°C° 0 mm 2 m/S 593 mmHg 13%
    14:00 +28°C° 0 mm 2 m/S 592 mmHg 11%
    15:00 +29°C° 0 mm 2 m/S 592 mmHg 11%
    16:00 +29°C° 0 mm 2 m/S 592 mmHg 11%
    17:00 +29°C° 0 mm 2 m/S 591 mmHg 11%
    18:00 +27°C° 0 mm 1 m/S 591 mmHg 13%
    19:00 +25°C° 0 mm 1 m/S 590 mmHg 15%
    20:00 +23°C° 0 mm 1 m/S 590 mmHg 18%
    21:00 +22°C° 0 mm 1 m/S 590 mmHg 20%
    22:00 +21°C° 0 mm 1 m/S 590 mmHg 22%
    23:00 +20°C° 0 mm 2 m/S 590 mmHg 24%

    Morgen, 24 September, Dienstag

    Zeit Temperatur Niederschläge Wind Luftdruck Luftfeuchtigkeit
    00:00 +20°C° 0 mm 1 m/S 590 mmHg 29%
    01:00 +19°C° 0 mm 1 m/S 589 mmHg 33%
    02:00 +18°C° 0 mm 1 m/S 589 mmHg 38%
    03:00 +16°C° 0 mm 1 m/S 588 mmHg 41%
    04:00 +16°C° 0 mm 1 m/S 588 mmHg 44%
    05:00 +14°C° 0 mm 0 m/S 588 mmHg 47%
    06:00 +16°C° 0 mm 0 m/S 589 mmHg 43%
    07:00 +17°C° 0 mm 0 m/S 590 mmHg 39%
    08:00 +19°C° 0 mm 0 m/S 592 mmHg 35%
    09:00 +20°C° 0 mm 0 m/S 592 mmHg 32%
    10:00 +24°C° 0 mm 1 m/S 592 mmHg 29%
    11:00 +25°C° 0 mm 1 m/S 593 mmHg 26%
    12:00 +26°C° 0 mm 1 m/S 593 mmHg 22%
    13:00 +28°C° 0 mm 2 m/S 592 mmHg 19%
    14:00 +29°C° 0 mm 2 m/S 592 mmHg 16%
    15:00 +29°C° 0 mm 2 m/S 592 mmHg 15%
    16:00 +29°C° 0 mm 2 m/S 592 mmHg 14%
    17:00 +30°C° 0 mm 2 m/S 592 mmHg 13%
    18:00 +28°C° 0 mm 2 m/S 592 mmHg 14%
    19:00 +26°C° 0 mm 2 m/S 591 mmHg 16%
    20:00 +24°C° 0 mm 2 m/S 591 mmHg 18%
    21:00 +23°C° 0 mm 2 m/S 591 mmHg 22%
    22:00 +21°C° 0 mm 1 m/S 591 mmHg 27%
    23:00 +20°C° 0 mm 1 m/S 590 mmHg 32%

    übermorgen, 25 September, Mittwoch

    Zeit Temperatur Niederschläge Wind Luftdruck Luftfeuchtigkeit
    00:00 +20°C° 0 mm 1 m/S 590 mmHg 36%
    01:00 +19°C° 0 mm 1 m/S 590 mmHg 40%
    02:00 +18°C° 0 mm 1 m/S 589 mmHg 43%
    03:00 +16°C° 0 mm 1 m/S 589 mmHg 46%
    04:00 +16°C° 0 mm 1 m/S 589 mmHg 49%
    05:00 +15°C° 0 mm 1 m/S 589 mmHg 53%
    06:00 +16°C° 0 mm 0 m/S 590 mmHg 47%
    07:00 +18°C° 0 mm 0 m/S 591 mmHg 42%
    08:00 +19°C° 0 mm 0 m/S 592 mmHg 36%
    09:00 +23°C° 0 mm 1 m/S 593 mmHg 33%
    10:00 +24°C° 0 mm 1 m/S 593 mmHg 30%
    11:00 +25°C° 0 mm 1 m/S 594 mmHg 28%
    12:00 +27°C° 0 mm 1 m/S 594 mmHg 25%
    13:00 +28°C° 0 mm 2 m/S 593 mmHg 22%
    14:00 +29°C° 0 mm 2 m/S 593 mmHg 19%
    15:00 +29°C° 0 mm 2 m/S 593 mmHg 17%
    16:00 +29°C° 0 mm 3 m/S 593 mmHg 16%
    17:00 +29°C° 0 mm 3 m/S 593 mmHg 15%
    18:00 +28°C° 0 mm 3 m/S 593 mmHg 17%
    19:00 +26°C° 0 mm 3 m/S 592 mmHg 19%
    20:00 +24°C° 0 mm 3 m/S 592 mmHg 22%
    21:00 +23°C° 0 mm 2 m/S 592 mmHg 28%
    22:00 +21°C° 0 mm 2 m/S 592 mmHg 34%
    23:00 +20°C° 0 mm 1 m/S 591 mmHg 41%

    26 September, Donnerstag

    Zeit Temperatur Niederschläge Wind Luftdruck Luftfeuchtigkeit
    00:00 +20°C° 0 mm 1 m/S 591 mmHg 45%
    01:00 +20°C° 0 mm 1 m/S 591 mmHg 49%
    02:00 +19°C° 0 mm 1 m/S 591 mmHg 53%
    03:00 +19°C° 0 mm 1 m/S 591 mmHg 55%
    04:00 +18°C° 0 mm 1 m/S 591 mmHg 57%
    05:00 +16°C° 0 mm 1 m/S 590 mmHg 58%
    06:00 +19°C° 0 mm 1 m/S 591 mmHg 52%
    07:00 +20°C° 0 mm 1 m/S 592 mmHg 45%
    08:00 +22°C° 0 mm 1 m/S 593 mmHg 38%
    09:00 +23°C° 0 mm 1 m/S 594 mmHg 35%
    10:00 +24°C° 0 mm 1 m/S 594 mmHg 32%
    11:00 +26°C° 0 mm 1 m/S 595 mmHg 30%
    12:00 +27°C° 0 mm 1 m/S 594 mmHg 26%
    13:00 +28°C° 0 mm 2 m/S 594 mmHg 23%
    14:00 +29°C° 0 mm 2 m/S 594 mmHg 20%
    15:00 +29°C° 0 mm 2 m/S 594 mmHg 19%
    16:00 +29°C° 0 mm 2 m/S 593 mmHg 17%
    17:00 +30°C° 0 mm 2 m/S 593 mmHg 16%
    18:00 +28°C° 0 mm 2 m/S 593 mmHg 19%
    19:00 +26°C° 0 mm 2 m/S 592 mmHg 22%
    20:00 +24°C° 0 mm 3 m/S 592 mmHg 25%
    21:00 +23°C° 0 mm 2 m/S 592 mmHg 33%
    22:00 +21°C° 0 mm 2 m/S 592 mmHg 41%
    23:00 +20°C° 0 mm 2 m/S 591 mmHg 49%

    27 September, Freitag

    Zeit Temperatur Niederschläge Wind Luftdruck Luftfeuchtigkeit
    00:00 +19°C° 0 mm 2 m/S 591 mmHg 54%
    01:00 +20°C° 0 mm 1 m/S 591 mmHg 59%
    02:00 +19°C° 0 mm 1 m/S 590 mmHg 64%
    03:00 +19°C° 0 mm 1 m/S 590 mmHg 63%
    04:00 +18°C° 0 mm 1 m/S 590 mmHg 62%
    05:00 +17°C° 0 mm 2 m/S 590 mmHg 61%
    06:00 +19°C° 0 mm 1 m/S 591 mmHg 54%
    07:00 +20°C° 0 mm 1 m/S 592 mmHg 48%
    08:00 +22°C° 0 mm 1 m/S 592 mmHg 41%
    09:00 +23°C° 0 mm 1 m/S 593 mmHg 36%
    10:00 +25°C° 0 mm 1 m/S 593 mmHg 32%
    11:00 +26°C° 0 mm 1 m/S 593 mmHg 27%
    12:00 +28°C° 0 mm 1 m/S 593 mmHg 22%
    13:00 +29°C° 0 mm 2 m/S 593 mmHg 18%
    14:00 +30°C° 0 mm 2 m/S 593 mmHg 13%
    15:00 +30°C° 0 mm 2 m/S 592 mmHg 12%
    16:00 +30°C° 0 mm 3 m/S 592 mmHg 11%
    17:00 +30°C° 0 mm 3 m/S 592 mmHg 11%
    18:00 +28°C° 0 mm 3 m/S 591 mmHg 12%
    19:00 +26°C° 0 mm 3 m/S 591 mmHg 13%
    20:00 +24°C° 0 mm 3 m/S 591 mmHg 14%
    21:00 +22°C° 0 mm 3 m/S 590 mmHg 17%
    22:00 +21°C° 0 mm 2 m/S 590 mmHg 20%
    23:00 +20°C° 0 mm 2 m/S 590 mmHg 23%

    28 September, Samstag

    Zeit Temperatur Niederschläge Wind Luftdruck Luftfeuchtigkeit
    00:00 +19°C° 0 mm 2 m/S 590 mmHg 22%
    01:00 +19°C° 0 mm 2 m/S 589 mmHg 22%
    02:00 +18°C° 0 mm 2 m/S 589 mmHg 21%
    03:00 +18°C° 0 mm 2 m/S 589 mmHg 20%
    04:00 +17°C° 0 mm 2 m/S 588 mmHg 20%
    05:00 +16°C° 0 mm 2 m/S 588 mmHg 19%
    06:00 +18°C° 0 mm 2 m/S 589 mmHg 18%
    07:00 +19°C° 0 mm 2 m/S 589 mmHg 16%
    08:00 +21°C° 0 mm 1 m/S 590 mmHg 14%
    09:00 +23°C° 0 mm 1 m/S 590 mmHg 13%
    10:00 +25°C° 0 mm 1 m/S 591 mmHg 11%
    11:00 +26°C° 0 mm 1 m/S 591 mmHg 10%
    12:00 +27°C° 0 mm 1 m/S 591 mmHg 9%
    13:00 +28°C° 0 mm 2 m/S 590 mmHg 9%
    14:00 +29°C° 0 mm 3 m/S 590 mmHg 8%
    15:00 +29°C° 0 mm 3 m/S 590 mmHg 8%
    16:00 +29°C° 0 mm 4 m/S 590 mmHg 9%
    17:00 +29°C° 0 mm 4 m/S 590 mmHg 9%
    18:00 +27°C° 0 mm 4 m/S 589 mmHg 10%
    19:00 +25°C° 0 mm 4 m/S 589 mmHg 12%
    20:00 +23°C° 0 mm 4 m/S 589 mmHg 14%
    21:00 +21°C° 0 mm 4 m/S 589 mmHg 20%
    22:00 +20°C° 0 mm 3 m/S 589 mmHg 26%
    23:00 +19°C° 0 mm 2 m/S 588 mmHg 32%
    Mehr zeigen